CAPE
0 0 0 0 0 0 0 0 7 27 20 325 1193 1774 2135 1895 1680 1472 1571 2115 1670 1792 1831 1398 1084 881 520 343 197 79 20 22 45 46 74 63 19 11 11 12 2 0 0
0 0 0 4 0 0 0 1 281 313 381 8 11 740 1589 2400 1956 1422 1315 1566 1862 1726 1541 1527 1141 1121 824 270 171 53 56 9 18 11 56 21 30 63 37 23 17 6 1
0 0 12 1 0 0 344 357 507 502 514 296 89 945 1552 1663 1650 1533 1494 1204 1753 1498 1675 1228 841 670 672 447 125 156 63 15 12 35 17 0 0 28 27 16 10 7 0
13 24 10 0 11 20 37 356 631 881 720 927 594 1071 1173 1251 1180 1001 1252 1472 1736 1557 1417 1143 671 435 519 242 104 170 11 34 12 29 45 19 1 0 27 18 30 29 0
58 20 0 0 0 20 38 180 246 534 933 1054 1023 1367 1019 845 919 560 771 993 1433 1139 1116 826 442 187 107 64 208 55 49 75 28 2 0 13 30 17 0 3 9 27 4
39 2 11 3 28 162 219 391 193 125 267 448 470 1116 1233 648 514 701 638 986 1022 1111 890 539 508 209 90 81 76 27 63 43 44 25 8 0 33 6 0 0 0 3 6
33 32 32 18 20 31 66 11 28 75 288 287 375 518 841 763 799 975 882 1131 997 1083 642 513 477 221 132 88 59 112 85 13 6 16 3 8 56 22 4 0 0 0 11
74 56 22 21 21 13 7 10 0 48 255 178 173 426 597 826 872 1408 937 920 729 411 809 357 433 375 59 25 11 34 31 4 12 27 7 20 59 59 57 0 0 0 15
65 43 14 20 17 0 18 28 0 0 50 151 98 184 262 815 968 952 881 750 791 360 193 324 302 24 0 0 0 2 0 6 16 23 6 18 69 109 69 95 20 2 1
2 0 3 14 13 9 12 30 1 0 0 17 116 109 203 526 870 938 1095 617 885 491 287 52 30 0 11 0 1 0 1 14 19 2 21 40 39 97 123 127 68 35 4
0 0 0 10 16 28 16 1 0 0 0 0 109 87 87 220 861 807 892 712 661 469 325 37 25 24 31 4 0 0 0 1 31 6 81 16 48 27 122 138 149 61 56
0 0 0 6 6 8 1 0 0 0 0 0 0 69 79 111 715 879 921 753 661 518 267 169 31 2 35 27 68 31 0 0 9 34 4 0 30 52 141 160 169 79 68
0 0 0 0 0 39 30 0 0 0 0 0 0 4 58 46 151 822 677 607 787 490 405 151 24 8 12 32 2 2 1 2 5 14 14 11 0 42 71 95 128 108 69
0 0 0 0 150 101 15 0 0 0 0 0 0 0 48 27 243 529 595 614 603 313 261 63 11 5 25 20 26 18 18 1 2 0 22 12 0 0 83 77 99 100 80
0 0 0 172 41 28 18 0 0 0 0 0 0 0 17 19 122 477 332 486 443 90 71 108 81 48 60 27 17 0 0 7 9 11 3 12 40 61 70 84 64 76 64
0 0 133 60 28 0 0 0 0 0 0 0 0 0 9 5 202 477 277 513 304 94 58 6 13 2 5 16 0 15 59 13 17 24 10 9 10 48 35 52 49 70 53
109 116 45 11 0 0 0 0 0 0 0 0 0 0 0 16 25 195 322 441 350 5 31 3 0 0 9 2 2 5 0 3 13 7 6 9 0 43 54 3 32 24 3
67 54 7 0 0 0 0 0 0 0 0 0 0 0 0 7 29 206 116 262 286 18 82 1 2 7 1 2 0 2 4 1 1 0 5 10 0 9 3 14 25 32 0
1 4 0 0 0 0 0 0 0 0 0 0 0 0 0 2 34 147 68 182 246 76 29 6 4 0 0 0 0 0 0 0 0 0 3 20 19 14 26 7 0 8 6
2 0 0 0 0 0 0 0 0 0 0 0 0 0 0 0 56 53 119 57 28 81 23 11 6 0 0 0 0 0 0 0 0 0 0 0 0 0 0 0 0 0 0
0 0 0 0 0 0 0 0 0 0 0 0 0 0 0 0 11 37 18 123 12 22 10 7 7 6 1 0 0 0 0 0 0 0 0 0 0 0 0 7 0 0 2
0 0 0 0 0 0 0 0 0 0 0 0 0 2 0 0 0 6 29 55 55 33 17 8 3 6 4 4 0 0 1 0 0 0 0 1 1 0 1 2 1 12 11
0 0 0 0 0 0 0 0 0 0 0 0 3 2 0 0 0 0 0 64 64 25 27 37 13 5 3 5 3 5 5 12 22 7 12 7 15 12 13 12 12 9 13
0 0 0 0 0 0 0 0 0 0 0 0 1 0 0 0 0 0 0 21 61 29 57 75 50 13 8 6 2 5 2 15 3 10 19 23 23 13 10 7 8 24 16
0 0 0 0 0 0 0 0 0 4 0 4 0 0 0 0 1 0 0 22 28 40 73 59 78 119 46 37 3 3 3 8 14 12 9 25 16 11 6 3 6 10 2
0 0 0 0 0 0 0 0 0 12 7 4 0 0 0 0 0 0 0 0 34 58 47 66 68 70 57 65 26 6 9 9 10 9 5 14 2 3 3 6 0 0 0
CIN
0 0 0 0 0 0 0 0 -189 -222 -292 -128 -23 -10 -5 -67 -78 -99 -60 -14 -47 -17 -5 -12 -11 0 -7 -3 0 0 -42 -4 -10 -4 -13 -8 0 -19 -7 -11 -18 0 0
0 0 0 -37 0 0 0 -31 -80 -122 -125 -362 -344 -67 -8 -14 -25 -81 -92 -30 -32 -41 -33 -10 -12 -1 0 -20 -6 -10 -1 -15 -19 -2 -22 -2 -22 -10 -11 -8 -9 -9 -2
0 0 -49 -21 0 0 -16 -37 -37 -69 -107 -176 -246 -52 -18 -8 -36 -73 -65 -100 -26 -61 -17 -39 -35 -20 -9 -8 -47 -4 -1 -25 -18 -10 -17 0 0 -16 -10 -20 -17 -20 0
-33 -42 -40 0 -18 -41 -68 -38 -42 -26 -22 -65 -64 -74 -56 -26 -69 -116 -81 -44 -21 -47 -37 -35 -53 -57 -12 -27 -25 -1 -23 -1 0 0 -20 -31 -45 0 -2 -19 -14 -17 0
-55 -56 0 0 0 -37 -70 -54 -77 -64 -16 -23 -38 -22 -38 -63 -80 -153 -141 -106 -44 -68 -60 -67 -90 -123 -106 -132 -7 -23 -12 0 0 0 0 -9 -25 -39 0 -2 -12 -6 -9
-41 -37 -95 -125 -18 -35 -33 -25 -44 -103 -122 -96 -70 -13 -18 -106 -143 -127 -177 -124 -95 -66 -75 -75 -69 -110 -103 -64 -22 -53 -17 -4 0 0 0 0 -13 -16 0 0 0 -9 -7
-24 -53 -37 -83 -91 -67 -66 -51 -112 -58 -94 -104 -101 -75 -47 -82 -78 -72 -124 -101 -96 -50 -83 -84 -50 -69 -60 -41 -20 -3 -12 -23 0 0 0 -3 -17 -23 -7 0 0 0 -4
-9 -8 -41 -102 -81 -105 -129 -157 -8 -56 -54 -85 -119 -69 -55 -51 -51 -6 -74 -86 -117 -164 -43 -86 -36 -4 -62 -78 -4 -35 -5 0 0 0 0 -6 -20 -7 -12 0 0 0 -9
-26 -4 -70 -82 -91 0 -70 -137 0 0 -77 -73 -145 -112 -85 -22 -16 -16 -51 -100 -89 -148 -178 -87 -57 -112 -9 0 0 -7 0 0 0 0 0 -15 -13 -18 -14 -13 -28 -67 -1
-32 0 -67 -61 -100 -93 -82 -103 -65 0 0 -107 -48 -111 -89 -34 -6 -5 -11 -62 -46 -106 -133 -188 -171 0 -126 0 0 0 0 0 0 0 -8 -23 -11 -13 -28 -21 -15 -25 -1
0 0 0 -88 -86 -58 -92 -41 0 0 0 0 -69 -53 -107 -65 -1 -6 -9 -49 -72 -105 -112 -186 -136 -97 -88 -2 0 0 0 0 0 0 -1 -4 -13 -15 -47 -58 -24 -10 -3
0 0 0 -84 -79 -34 -3 0 0 0 0 0 0 -43 -83 -88 -9 -3 -4 -19 -36 -74 -109 -117 -137 -7 -92 -36 -9 -4 0 0 0 0 0 0 -23 -27 -27 -58 -59 -16 -9
0 0 0 0 0 -8 -63 0 0 0 0 0 0 -3 -98 -161 -98 -8 -10 -20 -12 -39 -58 -109 -155 -48 -126 -72 -16 -42 0 -1 -3 0 0 0 0 -15 -9 -35 -35 -15 -11
0 0 0 0 -42 -50 -32 0 0 0 0 0 0 0 -121 -114 -44 -14 -18 -15 -19 -50 -68 -122 -42 -3 -130 -39 -26 -45 -39 -5 0 0 0 0 0 0 -16 -26 -22 -17 -9
0 0 0 -27 -20 -23 -26 0 0 0 0 0 0 0 -2 -42 -47 -3 -24 -33 -21 -115 -100 -81 -69 -107 -130 -107 -31 0 0 0 -6 0 -1 0 -4 -6 -12 -33 -23 -14 -3
0 0 -10 -22 -44 0 0 0 0 0 0 0 0 0 -12 -111 -18 0 -12 -13 -31 -77 -102 -2 0 0 0 0 0 0 -1 -1 -1 0 -5 0 0 0 -1 -5 -10 -7 -2
-3 -16 -49 -56 0 0 0 0 0 0 0 0 0 0 0 -15 -63 -10 -2 -2 -11 0 -139 0 0 0 -3 0 0 0 0 0 0 0 -3 0 0 0 0 0 -3 -7 0
-29 -20 -27 0 0 0 0 0 0 0 0 0 0 0 0 -7 -36 -18 -50 -12 -10 -107 -65 0 0 0 0 0 0 0 0 -75 0 0 0 0 0 0 0 0 0 0 0
-8 -13 0 0 0 0 0 0 0 0 0 0 0 0 0 0 0 -41 -90 -22 -14 -48 -75 0 0 0 0 0 0 0 0 0 0 0 0 0 0 0 0 -1 0 0 0
0 0 0 0 0 0 0 0 0 0 0 0 0 0 0 0 -91 -76 -21 -40 -14 -28 -54 -1 0 0 0 0 0 0 0 0 0 0 0 0 0 0 0 0 0 0 0
0 0 0 0 0 0 0 0 0 0 0 0 0 0 0 0 -8 -10 -11 -6 -27 -34 -52 0 0 -3 0 0 0 0 0 0 0 0 0 0 0 0 0 0 0 0 0
0 0 0 0 0 0 -18 0 0 0 0 0 0 0 0 0 0 -15 -50 -7 -35 -22 -18 -34 0 0 0 0 0 0 0 0 0 0 0 -1 0 0 0 0 -1 0 0
0 0 0 0 0 0 -1 0 0 0 0 0 0 0 0 0 0 0 0 0 0 -15 -2 -17 -10 0 0 0 0 -15 0 -1 -1 0 -4 -2 -4 -1 -1 -2 0 0 -1
0 0 0 0 0 0 0 0 0 0 0 0 0 0 0 0 0 0 0 -1 0 -1 0 0 -7 -28 0 0 0 -7 0 0 -2 -1 0 0 0 0 0 -1 0 0 -1
0 0 0 0 0 0 0 0 0 -1 0 0 0 0 0 0 0 0 0 0 -1 0 -1 0 0 0 -32 -24 0 0 0 0 0 0 0 0 0 0 0 -1 -1 -1 -4
0 0 0 0 0 0 0 0 0 -1 0 0 0 0 0 0 0 0 0 0 0 0 0 0 0 0 0 0 -9 -3 0 0 0 0 0 0 0 0 0 0 0 0 0
Wind_Speed
nan nan nan nan nan nan nan nan nan nan nan 34 32 33 33 32 31 35 29 30 28 23 22 23 26 32 31 32 32 nan nan nan nan nan nan nan nan nan nan nan nan nan nan
nan nan nan nan nan nan nan nan 32 31 34 nan nan 33 32 34 33 39 32 22 26 27 25 27 25 30 32 33 35 nan nan nan nan nan nan nan nan nan nan nan nan nan nan
nan nan nan nan nan nan 45 34 33 31 32 31 nan 39 41 40 36 39 28 24 28 28 26 28 26 29 34 34 36 37 nan nan nan nan nan nan nan nan nan nan nan nan nan
nan nan nan nan nan nan nan 40 40 37 37 35 33 43 36 37 34 39 31 29 27 29 24 24 28 30 32 35 34 37 nan nan nan nan nan nan nan nan nan nan nan nan nan
nan nan nan nan nan nan nan 41 44 40 43 39 39 35 37 34 37 39 36 29 25 26 24 23 26 30 33 nan 34 nan nan nan nan nan nan nan nan nan nan nan nan nan nan
nan nan nan nan nan 52 48 43 38 37 42 38 36 34 36 35 36 37 33 27 26 23 24 22 27 31 nan nan nan nan nan nan nan nan nan nan nan nan nan nan nan nan nan
nan nan nan nan nan nan nan nan nan nan 42 38 34 33 35 31 31 36 30 30 28 24 24 25 27 32 36 nan nan 36 nan nan nan nan nan nan nan nan nan nan nan nan nan
nan nan nan nan nan nan nan nan nan nan 46 42 37 39 31 29 31 33 30 31 29 28 27 27 29 32 nan nan nan nan nan nan nan nan nan nan nan nan nan nan nan nan nan
nan nan nan nan nan nan nan nan nan nan nan 42 nan 32 32 29 32 30 28 33 33 29 27 28 29 nan nan nan nan nan nan nan nan nan nan nan nan 37 nan nan nan nan nan
nan nan nan nan nan nan nan nan nan nan nan nan 45 37 31 29 31 28 28 36 31 30 31 nan nan nan nan nan nan nan nan nan nan nan nan nan nan nan 45 46 nan nan nan
nan nan nan nan nan nan nan nan nan nan nan nan 37 nan nan 28 31 28 26 32 34 30 31 nan nan nan nan nan nan nan nan nan nan nan nan nan nan nan 53 51 48 nan nan
nan nan nan nan nan nan nan nan nan nan nan nan nan nan nan 28 31 26 27 31 33 33 31 31 nan nan nan nan nan nan nan nan nan nan nan nan nan nan 52 53 52 nan nan
nan nan nan nan nan nan nan nan nan nan nan nan nan nan nan nan 30 28 29 33 32 36 33 30 nan nan nan nan nan nan nan nan nan nan nan nan nan nan nan nan 49 48 nan
nan nan nan nan 45 43 nan nan nan nan nan nan nan nan nan nan 30 30 30 29 30 35 31 nan nan nan nan nan nan nan nan nan nan nan nan nan nan nan nan nan nan 46 nan
nan nan nan 47 nan nan nan nan nan nan nan nan nan nan nan nan 36 32 31 31 32 nan nan 32 nan nan nan nan nan nan nan nan nan nan nan nan nan nan nan nan nan nan nan
nan nan 45 nan nan nan nan nan nan nan nan nan nan nan nan nan 34 32 35 33 33 nan nan nan nan nan nan nan nan nan nan nan nan nan nan nan nan nan nan nan nan nan nan
37 41 nan nan nan nan nan nan nan nan nan nan nan nan nan nan nan 31 35 36 35 nan nan nan nan nan nan nan nan nan nan nan nan nan nan nan nan nan nan nan nan nan nan
nan nan nan nan nan nan nan nan nan nan nan nan nan nan nan nan nan 30 37 43 41 nan nan nan nan nan nan nan nan nan nan nan nan nan nan nan nan nan nan nan nan nan nan
nan nan nan nan nan nan nan nan nan nan nan nan nan nan nan nan nan 32 nan 44 44 nan nan nan nan nan nan nan nan nan nan nan nan nan nan nan nan nan nan nan nan nan nan
nan nan nan nan nan nan nan nan nan nan nan nan nan nan nan nan nan nan 42 nan nan nan nan nan nan nan nan nan nan nan nan nan nan nan nan nan nan nan nan nan nan nan nan
nan nan nan nan nan nan nan nan nan nan nan nan nan nan nan nan nan nan nan 47 nan nan nan nan nan nan nan nan nan nan nan nan nan nan nan nan nan nan nan nan nan nan nan
nan nan nan nan nan nan nan nan nan nan nan nan nan nan nan nan nan nan nan nan nan nan nan nan nan nan nan nan nan nan nan nan nan nan nan nan nan nan nan nan nan nan nan
nan nan nan nan nan nan nan nan nan nan nan nan nan nan nan nan nan nan nan nan nan nan nan nan nan nan nan nan nan nan nan nan nan nan nan nan nan nan nan nan nan nan nan
nan nan nan nan nan nan nan nan nan nan nan nan nan nan nan nan nan nan nan nan nan nan nan nan nan nan nan nan nan nan nan nan nan nan nan nan nan nan nan nan nan nan nan
nan nan nan nan nan nan nan nan nan nan nan nan nan nan nan nan nan nan nan nan nan nan nan nan nan 48 nan nan nan nan nan nan nan nan nan nan nan nan nan nan nan nan nan
nan nan nan nan nan nan nan nan nan nan nan nan nan nan nan nan nan nan nan nan nan nan nan nan nan nan nan nan nan nan nan nan nan nan nan nan nan nan nan nan nan nan nan
Wind_Direction
nan nan nan nan nan nan nan nan nan nan nan 262 275 275 286 290 295 301 302 292 290 299 299 283 287 294 300 297 292 nan nan nan nan nan nan nan nan nan nan nan nan nan nan
nan nan nan nan nan nan nan nan 258 259 262 nan nan 270 279 288 292 297 303 286 288 295 292 282 289 296 292 299 293 nan nan nan nan nan nan nan nan nan nan nan nan nan nan
nan nan nan nan nan nan 251 240 247 246 260 267 nan 267 263 275 279 291 290 282 278 278 285 289 290 297 295 297 302 291 nan nan nan nan nan nan nan nan nan nan nan nan nan
nan nan nan nan nan nan nan 247 236 241 258 266 260 268 272 280 280 288 285 263 271 278 288 289 291 297 296 300 300 296 nan nan nan nan nan nan nan nan nan nan nan nan nan
nan nan nan nan nan nan nan 253 254 244 247 251 253 265 276 276 278 286 294 271 269 276 286 289 296 298 302 nan 297 nan nan nan nan nan nan nan nan nan nan nan nan nan nan
nan nan nan nan nan 255 252 246 256 256 250 247 245 254 276 284 281 292 292 273 271 278 291 293 293 295 nan nan nan nan nan nan nan nan nan nan nan nan nan nan nan nan nan
nan nan nan nan nan nan nan nan nan nan 257 254 246 245 270 283 282 292 285 269 273 275 284 283 290 293 304 nan nan 305 nan nan nan nan nan nan nan nan nan nan nan nan nan
nan nan nan nan nan nan nan nan nan nan 255 251 248 253 261 265 268 282 276 262 268 270 273 275 279 290 nan nan nan nan nan nan nan nan nan nan nan nan nan nan nan nan nan
nan nan nan nan nan nan nan nan nan nan nan 258 nan 255 261 261 262 278 275 265 272 272 277 281 282 nan nan nan nan nan nan nan nan nan nan nan nan 240 nan nan nan nan nan
nan nan nan nan nan nan nan nan nan nan nan nan 254 252 253 258 257 267 275 270 275 271 278 nan nan nan nan nan nan nan nan nan nan nan nan nan nan nan 241 251 nan nan nan
nan nan nan nan nan nan nan nan nan nan nan nan 237 nan nan 257 257 261 266 269 278 273 274 nan nan nan nan nan nan nan nan nan nan nan nan nan nan nan 247 248 254 nan nan
nan nan nan nan nan nan nan nan nan nan nan nan nan nan nan 258 260 262 266 258 270 273 275 280 nan nan nan nan nan nan nan nan nan nan nan nan nan nan 250 253 258 nan nan
nan nan nan nan nan nan nan nan nan nan nan nan nan nan nan nan 263 263 266 265 265 266 272 277 nan nan nan nan nan nan nan nan nan nan nan nan nan nan nan nan 261 257 nan
nan nan nan nan 250 246 nan nan nan nan nan nan nan nan nan nan 262 261 265 262 255 258 268 nan nan nan nan nan nan nan nan nan nan nan nan nan nan nan nan nan nan 258 nan
nan nan nan 252 nan nan nan nan nan nan nan nan nan nan nan nan 254 258 266 263 256 nan nan 263 nan nan nan nan nan nan nan nan nan nan nan nan nan nan nan nan nan nan nan
nan nan 252 nan nan nan nan nan nan nan nan nan nan nan nan nan 250 254 263 266 253 nan nan nan nan nan nan nan nan nan nan nan nan nan nan nan nan nan nan nan nan nan nan
250 263 nan nan nan nan nan nan nan nan nan nan nan nan nan nan nan 259 263 264 251 nan nan nan nan nan nan nan nan nan nan nan nan nan nan nan nan nan nan nan nan nan nan
nan nan nan nan nan nan nan nan nan nan nan nan nan nan nan nan nan 256 264 261 244 nan nan nan nan nan nan nan nan nan nan nan nan nan nan nan nan nan nan nan nan nan nan
nan nan nan nan nan nan nan nan nan nan nan nan nan nan nan nan nan 228 nan 256 242 nan nan nan nan nan nan nan nan nan nan nan nan nan nan nan nan nan nan nan nan nan nan
nan nan nan nan nan nan nan nan nan nan nan nan nan nan nan nan nan nan 259 nan nan nan nan nan nan nan nan nan nan nan nan nan nan nan nan nan nan nan nan nan nan nan nan
nan nan nan nan nan nan nan nan nan nan nan nan nan nan nan nan nan nan nan 242 nan nan nan nan nan nan nan nan nan nan nan nan nan nan nan nan nan nan nan nan nan nan nan
nan nan nan nan nan nan nan nan nan nan nan nan nan nan nan nan nan nan nan nan nan nan nan nan nan nan nan nan nan nan nan nan nan nan nan nan nan nan nan nan nan nan nan
nan nan nan nan nan nan nan nan nan nan nan nan nan nan nan nan nan nan nan nan nan nan nan nan nan nan nan nan nan nan nan nan nan nan nan nan nan nan nan nan nan nan nan
nan nan nan nan nan nan nan nan nan nan nan nan nan nan nan nan nan nan nan nan nan nan nan nan nan nan nan nan nan nan nan nan nan nan nan nan nan nan nan nan nan nan nan
nan nan nan nan nan nan nan nan nan nan nan nan nan nan nan nan nan nan nan nan nan nan nan nan nan 265 nan nan nan nan nan nan nan nan nan nan nan nan nan nan nan nan nan
nan nan nan nan nan nan nan nan nan nan nan nan nan nan nan nan nan nan nan nan nan nan nan nan nan nan nan nan nan nan nan nan nan nan nan nan nan nan nan nan nan nan nan